Miscellaneous Local Product
Issued by NWS Hastings, NE

Home | Current Version | Previous Version | Text Only | Print | Product List | Glossary Off
Versions: 1 2 3 4 5 6 7 8 9 10 11 12 13 14 15 16 17 18 19 20 21 22 23 24 25 26 27 28 29 30 31 32 33 34 35 36 37 38 39 40 41 42 43 44 45 46 47 48 49 50

000
AXUS43 KGID 291502
MISGRI

GID CWA HOURLY WEATHER ROUNDUP
NATIONAL WEATHER SERVICE HASTINGS NE
1000 AM CDT FRI MAY 29 2015

NOTE: "FAIR" INDICATES FEW OR NO CLOUDS BELOW 12,000 FEET WITH NO
SIGNIFICANT WEATHER AND/OR OBSTRUCTIONS TO VISIBILITY.

...SOUTH CENTRAL NEBRASKA...

CITY           SKY/WX    TMP DP  RH WIND       PRES   REMARKS
GRAND ISLAND   PTSUNNY   66  58  75 N10       29.96S
HASTINGS       PTSUNNY   66  58  75 N9        29.97R
KEARNEY        MOSUNNY   66  55  68 NW12      29.98R
ORD            MOSUNNY   65  58  78 NW14      29.96R
YORK           CLOUDY    66  59  77 W7        29.95S
AURORA         CLOUDY    65  61  88 NW6       29.96R
LEXINGTON      SUNNY     67  58  73 N10       30.00S
HOLDREGE       SUNNY     66  55  68 N10       29.99R

...NEBRASKA PANHANDLE...

CITY           SKY/WX    TMP DP  RH WIND       PRES   REMARKS
CHADRON        CLOUDY    53  50  89 N22G30    30.15R
ALLIANCE       CLOUDY    55  52  89 N10       30.12R
SCOTTSBLUFF    CLOUDY    57  52  83 NW8       30.16R
SIDNEY         CLOUDY    56  51  84 N17       30.16R

...WESTERN AND NORTH CENTRAL NEBRASKA...

CITY           SKY/WX    TMP DP  RH WIND       PRES   REMARKS
VALENTINE      CLOUDY    57  55  93 N17G28    30.05R
AINSWORTH      CLOUDY    63  56  79 NW21      30.02R
ONEILL         CLOUDY    65  60  86 NW10      29.95S
BROKEN BOW     SUNNY     67  58  72 N16       29.99R
IMPERIAL         N/A     63  54  72 NW15      30.08R
NORTH PLATTE   PTSUNNY   64  55  72 NW12      30.04S
MCCOOK         MOSUNNY   66  56  70 N12       30.04R

...EASTERN NEBRASKA...

CITY           SKY/WX    TMP DP  RH WIND       PRES   REMARKS
NORFOLK        CLOUDY    66  60  81 VRB6      29.91F
SO SIOUX CITY  CLOUDY    67  60  78 SW6       29.91R
TEKAMAH        CLOUDY    70  64  81 SW10      29.92R
COLUMBUS       CLOUDY    66  57  72 W3        29.94F
ALBION         PTSUNNY   66  58  75 NW10      29.94R
OMAHA EPPLEY   CLOUDY    69  63  81 S6        29.93S
OFFUTT AFB     PTSUNNY   69  65  88 S6        29.92F
MILLARD        CLOUDY    69  64  84 SW5       29.93S
LINCOLN        CLOUDY    69  61  75 W7        29.94S
NEBRASKA CITY  CLOUDY    69  67  94 SW8       29.94F
BEATRICE       CLOUDY    68  62  81 W7        29.95S
FALLS CITY     LGT RAIN  68  65  90 S13       29.94S

...NORTHERN KANSAS...

CITY           SKY/WX    TMP DP  RH WIND       PRES   REMARKS
GOODLAND       MOSUNNY   62  52  69 N18G28    30.09R
HILL CITY      MOSUNNY   68  57  68 N13       30.01R
NORTON         SUNNY     68  50  52 NW13      30.01R
PHILLIPSBURG   SUNNY     68  59  73 NW8       30.00S
SMITH CENTER   SUNNY     64  57  77 NW9       29.99S
HAYS           PTSUNNY   66  54  63 NW9       30.00S
RUSSELL        CLOUDY    66  57  72 N5        29.99R
CONCORDIA      CLOUDY    65  60  84 W6        29.96F
SALINA         CLOUDY    67  61  81 S3        29.97R
TOPEKA         CLOUDY    70  64  81 S14G20    29.96S



USA.gov is the U.S. government's official web portal to all federal, state and local government web resources and services.